owner,sensor,date,latitude,longitude,vertical_datum,sea_water_temperature,qcFlag 
TABS,ioos:station:wmo:42050:1,2003-04-01T00:00:00Z,28.8425,-94.2433,-2.0,18.12,11111222 
TABS,ioos:station:wmo:42050:1,2003-04-01T00:30:00Z,28.8425,-94.2433,-2.0,18.16,11111222 
TABS,ioos:station:wmo:42050:1,2003-04-01T01:00:00Z,28.8425,-94.2433,-2.0,18.15,11111222 
TABS,ioos:station:wmo:42050:1,2003-04-01T01:30:00Z,28.8425,-94.2433,-2.0,18.15,11111222 
TABS,ioos:station:wmo:42050:1,2003-04-01T02:00:00Z,28.8425,-94.2433,-2.0,18.13,11111222 
TABS,ioos:station:wmo:42050:1,2003-04-01T02:30:00Z,28.8425,-94.2433,-2.0,18.16,11111222 
TABS,ioos:station:wmo:42050:1,2003-04-01T03:00:00Z,28.8425,-94.2433,-2.0,18.15,11111222 
TABS,ioos:station:wmo:42050:1,2003-04-01T03:30:00Z,28.8425,-94.2433,-2.0,18.14,11111222 
TABS,ioos:station:wmo:42050:1,2003-04-01T04:00:00Z,28.8425,-94.2433,-2.0,18.11,11111222 
TABS,ioos:station:wmo:42050:1,2003-04-01T04:30:00Z,28.8425,-94.2433,-2.0,18.09,11111222 
TABS,ioos:station:wmo:42050:1,2003-04-01T05:00:00Z,28.8425,-94.2433,-2.0,18.09,11111222 
TABS,ioos:station:wmo:42050:1,2003-04-01T05:30:00Z,28.8425,-94.2433,-2.0,18.05,11111222 
TABS,ioos:station:wmo:42050:1,2003-04-01T06:00:00Z,28.8425,-94.2433,-2.0,18.04,11111222 
TABS,ioos:station:wmo:42050:1,2003-04-01T06:30:00Z,28.8425,-94.2433,-2.0,18.02,11111222 
TABS,ioos:station:wmo:42050:1,2003-04-01T07:00:00Z,28.8425,-94.2433,-2.0,18.01,11111222 
TABS,ioos:station:wmo:42050:1,2003-04-01T07:30:00Z,28.8425,-94.2433,-2.0,18.0,11111222 
TABS,ioos:station:wmo:42050:1,2003-04-01T08:00:00Z,28.8425,-94.2433,-2.0,17.97,11111222 
TABS,ioos:station:wmo:42050:1,2003-04-01T08:30:00Z,28.8425,-94.2433,-2.0,17.95,11111222 
TABS,ioos:station:wmo:42050:1,2003-04-01T09:00:00Z,28.8425,-94.2433,-2.0,17.94,11111222 
TABS,ioos:station:wmo:42050:1,2003-04-01T09:30:00Z,28.8425,-94.2433,-2.0,17.95,11111222 
TABS,ioos:station:wmo:42050:1,2003-04-01T10:00:00Z,28.8425,-94.2433,-2.0,17.96,11111222 
TABS,ioos:station:wmo:42050:1,2003-04-01T10:30:00Z,28.8425,-94.2433,-2.0,17.94,11111222 
TABS,ioos:station:wmo:42050:1,2003-04-01T11:00:00Z,28.8425,-94.2433,-2.0,17.92,11111222 
TABS,ioos:station:wmo:42050:1,2003-04-01T11:30:00Z,28.8425,-94.2433,-2.0,17.9,11111222 
TABS,ioos:station:wmo:42050:1,2003-04-01T12:00:00Z,28.8425,-94.2433,-2.0,17.9,11111222 
TABS,ioos:station:wmo:42050:1,2003-04-01T12:30:00Z,28.8425,-94.2433,-2.0,17.88,11111222 
TABS,ioos:station:wmo:42050:1,2003-04-01T13:00:00Z,28.8425,-94.2433,-2.0,17.91,11111222 
TABS,ioos:station:wmo:42050:1,2003-04-01T13:30:00Z,28.8425,-94.2433,-2.0,17.88,11111222 
TABS,ioos:station:wmo:42050:1,2003-04-01T14:00:00Z,28.8425,-94.2433,-2.0,17.91,11111222 
TABS,ioos:station:wmo:42050:1,2003-04-01T14:30:00Z,28.8425,-94.2433,-2.0,17.98,11111222 
TABS,ioos:station:wmo:42050:1,2003-04-01T15:00:00Z,28.8425,-94.2433,-2.0,18.06,11111222 
TABS,ioos:station:wmo:42050:1,2003-04-01T15:30:00Z,28.8425,-94.2433,-2.0,18.11,11111222 
TABS,ioos:station:wmo:42050:1,2003-04-01T16:00:00Z,28.8425,-94.2433,-2.0,18.14,11111222 
TABS,ioos:station:wmo:42050:1,2003-04-01T16:30:00Z,28.8425,-94.2433,-2.0,18.18,11111222 
TABS,ioos:station:wmo:42050:1,2003-04-01T17:00:00Z,28.8425,-94.2433,-2.0,18.23,11111222 
TABS,ioos:station:wmo:42050:1,2003-04-01T17:30:00Z,28.8425,-94.2433,-2.0,18.26,11111222 
TABS,ioos:station:wmo:42050:1,2003-04-01T18:00:00Z,28.8425,-94.2433,-2.0,18.28,11111222 
TABS,ioos:station:wmo:42050:1,2003-04-01T18:30:00Z,28.8425,-94.2433,-2.0,18.31,11111222 
TABS,ioos:station:wmo:42050:1,2003-04-01T19:00:00Z,28.8425,-94.2433,-2.0,18.34,11111222 
TABS,ioos:station:wmo:42050:1,2003-04-01T19:30:00Z,28.8425,-94.2433,-2.0,18.39,11111222 
TABS,ioos:station:wmo:42050:1,2003-04-01T20:00:00Z,28.8425,-94.2433,-2.0,18.39,11111222 
TABS,ioos:station:wmo:42050:1,2003-04-01T20:30:00Z,28.8425,-94.2433,-2.0,18.41,11111222 
TABS,ioos:station:wmo:42050:1,2003-04-01T21:00:00Z,28.8425,-94.2433,-2.0,18.42,11111222 
TABS,ioos:station:wmo:42050:1,2003-04-01T21:30:00Z,28.8425,-94.2433,-2.0,18.43,11111222 
TABS,ioos:station:wmo:42050:1,2003-04-01T22:00:00Z,28.8425,-94.2433,-2.0,18.44,11111222 
TABS,ioos:station:wmo:42050:1,2003-04-01T22:30:00Z,28.8425,-94.2433,-2.0,18.43,11111222 
TABS,ioos:station:wmo:42050:1,2003-04-01T23:00:00Z,28.8425,-94.2433,-2.0,18.45,11111222 
TABS,ioos:station:wmo:42050:1,2003-04-01T23:30:00Z,28.8425,-94.2433,-2.0,18.43,11111222 
TABS,ioos:station:wmo:42050:1,2003-04-02T00:00:00Z,28.8425,-94.2433,-2.0,18.42,11111222 
TABS,ioos:station:wmo:42050:1,2003-04-02T00:30:00Z,28.8425,-94.2433,-2.0,18.42,11111222 
TABS,ioos:station:wmo:42050:1,2003-04-02T01:00:00Z,28.8425,-94.2433,-2.0,18.41,11111222 
TABS,ioos:station:wmo:42050:1,2003-04-02T01:30:00Z,28.8425,-94.2433,-2.0,18.31,11111222 
TABS,ioos:station:wmo:42050:1,2003-04-02T02:00:00Z,28.8425,-94.2433,-2.0,18.26,11111222 
TABS,ioos:station:wmo:42050:1,2003-04-02T02:30:00Z,28.8425,-94.2433,-2.0,18.26,11111222 
TABS,ioos:station:wmo:42050:1,2003-04-02T03:00:00Z,28.8425,-94.2433,-2.0,18.24,11111222 
TABS,ioos:station:wmo:42050:1,2003-04-02T03:30:00Z,28.8425,-94.2433,-2.0,18.23,11111222 
TABS,ioos:station:wmo:42050:1,2003-04-02T04:00:00Z,28.8425,-94.2433,-2.0,18.23,11111222 
TABS,ioos:station:wmo:42050:1,2003-04-02T04:30:00Z,28.8425,-94.2433,-2.0,18.22,11111222 
TABS,ioos:station:wmo:42050:1,2003-04-02T05:00:00Z,28.8425,-94.2433,-2.0,18.22,11111222 
TABS,ioos:station:wmo:42050:1,2003-04-02T05:30:00Z,28.8425,-94.2433,-2.0,18.23,11111222 
TABS,ioos:station:wmo:42050:1,2003-04-02T06:00:00Z,28.8425,-94.2433,-2.0,18.27,11111222 
TABS,ioos:station:wmo:42050:1,2003-04-02T06:30:00Z,28.8425,-94.2433,-2.0,18.25,11111222 
TABS,ioos:station:wmo:42050:1,2003-04-02T07:00:00Z,28.8425,-94.2433,-2.0,18.3,11111222 
TABS,ioos:station:wmo:42050:1,2003-04-02T07:30:00Z,28.8425,-94.2433,-2.0,18.3,11111222 
TABS,ioos:station:wmo:42050:1,2003-04-02T08:00:00Z,28.8425,-94.2433,-2.0,18.3,11111222 
TABS,ioos:station:wmo:42050:1,2003-04-02T08:30:00Z,28.8425,-94.2433,-2.0,18.3,11111222 
TABS,ioos:station:wmo:42050:1,2003-04-02T09:00:00Z,28.8425,-94.2433,-2.0,18.3,11111222 
TABS,ioos:station:wmo:42050:1,2003-04-02T09:30:00Z,28.8425,-94.2433,-2.0,18.3,11111222 
TABS,ioos:station:wmo:42050:1,2003-04-02T10:00:00Z,28.8425,-94.2433,-2.0,18.29,11111222 
TABS,ioos:station:wmo:42050:1,2003-04-02T10:30:00Z,28.8425,-94.2433,-2.0,18.29,11111222 
TABS,ioos:station:wmo:42050:1,2003-04-02T11:00:00Z,28.8425,-94.2433,-2.0,18.29,11111222 
TABS,ioos:station:wmo:42050:1,2003-04-02T11:30:00Z,28.8425,-94.2433,-2.0,18.29,11111222 
TABS,ioos:station:wmo:42050:1,2003-04-02T12:00:00Z,28.8425,-94.2433,-2.0,18.29,11111222 
TABS,ioos:station:wmo:42050:1,2003-04-02T12:30:00Z,28.8425,-94.2433,-2.0,18.23,11111222 
TABS,ioos:station:wmo:42050:1,2003-04-02T13:00:00Z,28.8425,-94.2433,-2.0,18.23,11111222 
TABS,ioos:station:wmo:42050:1,2003-04-02T13:30:00Z,28.8425,-94.2433,-2.0,18.23,11111222 
TABS,ioos:station:wmo:42050:1,2003-04-02T14:00:00Z,28.8425,-94.2433,-2.0,18.2,11111222 
TABS,ioos:station:wmo:42050:1,2003-04-02T14:30:00Z,28.8425,-94.2433,-2.0,18.25,11111222 
TABS,ioos:station:wmo:42050:1,2003-04-02T15:00:00Z,28.8425,-94.2433,-2.0,18.3,11111222 
TABS,ioos:station:wmo:42050:1,2003-04-02T15:30:00Z,28.8425,-94.2433,-2.0,18.36,11111222 
TABS,ioos:station:wmo:42050:1,2003-04-02T16:00:00Z,28.8425,-94.2433,-2.0,18.43,11111222 
TABS,ioos:station:wmo:42050:1,2003-04-02T16:30:00Z,28.8425,-94.2433,-2.0,18.49,11111222 
TABS,ioos:station:wmo:42050:1,2003-04-02T17:00:00Z,28.8425,-94.2433,-2.0,18.54,11111222 
TABS,ioos:station:wmo:42050:1,2003-04-02T17:30:00Z,28.8425,-94.2433,-2.0,18.61,11111222 
TABS,ioos:station:wmo:42050:1,2003-04-02T18:00:00Z,28.8425,-94.2433,-2.0,18.64,11111222 
TABS,ioos:station:wmo:42050:1,2003-04-02T18:30:00Z,28.8425,-94.2433,-2.0,18.69,11111222 
TABS,ioos:station:wmo:42050:1,2003-04-02T19:00:00Z,28.8425,-94.2433,-2.0,18.73,11111222 
TABS,ioos:station:wmo:42050:1,2003-04-02T19:30:00Z,28.8425,-94.2433,-2.0,18.78,11111222 
TABS,ioos:station:wmo:42050:1,2003-04-02T20:00:00Z,28.8425,-94.2433,-2.0,18.81,11111222 
TABS,ioos:station:wmo:42050:1,2003-04-02T20:30:00Z,28.8425,-94.2433,-2.0,18.84,11111222 
TABS,ioos:station:wmo:42050:1,2003-04-02T21:00:00Z,28.8425,-94.2433,-2.0,18.81,11111222 
TABS,ioos:station:wmo:42050:1,2003-04-02T21:30:00Z,28.8425,-94.2433,-2.0,18.8,11111222 
TABS,ioos:station:wmo:42050:1,2003-04-02T22:00:00Z,28.8425,-94.2433,-2.0,18.82,11111222 
TABS,ioos:station:wmo:42050:1,2003-04-02T22:30:00Z,28.8425,-94.2433,-2.0,18.77,11111222 
TABS,ioos:station:wmo:42050:1,2003-04-02T23:00:00Z,28.8425,-94.2433,-2.0,18.73,11111222 
TABS,ioos:station:wmo:42050:1,2003-04-02T23:30:00Z,28.8425,-94.2433,-2.0,18.69,11111222 
TABS,ioos:station:wmo:42050:1,2003-04-03T00:00:00Z,28.8425,-94.2433,-2.0,18.64,11111222 
TABS,ioos:station:wmo:42050:1,2003-04-03T00:30:00Z,28.8425,-94.2433,-2.0,18.62,11111222 
TABS,ioos:station:wmo:42050:1,2003-04-03T01:00:00Z,28.8425,-94.2433,-2.0,18.56,11111222 
TABS,ioos:station:wmo:42050:1,2003-04-03T01:30:00Z,28.8425,-94.2433,-2.0,18.6,11111222 
TABS,ioos:station:wmo:42050:1,2003-04-03T02:00:00Z,28.8425,-94.2433,-2.0,18.61,11111222 
TABS,ioos:station:wmo:42050:1,2003-04-04T17:30:00Z,28.8425,-94.2433,-2.0,19.3,11111222 
TABS,ioos:station:wmo:42050:1,2003-04-04T18:00:00Z,28.8425,-94.2433,-2.0,19.3,11111222 
TABS,ioos:station:wmo:42050:1,2003-04-04T18:30:00Z,28.8425,-94.2433,-2.0,19.3,11111222 
TABS,ioos:station:wmo:42050:1,2003-04-04T19:00:00Z,28.8425,-94.2433,-2.0,19.3,11111222 
TABS,ioos:station:wmo:42050:1,2003-04-04T19:30:00Z,28.8425,-94.2433,-2.0,19.5,11111222 
TABS,ioos:station:wmo:42050:1,2003-04-04T20:00:00Z,28.8425,-94.2433,-2.0,19.5,11111222 
TABS,ioos:station:wmo:42050:1,2003-04-04T21:30:00Z,28.8425,-94.2433,-2.0,19.5,11111222 
TABS,ioos:station:wmo:42050:1,2003-04-04T22:00:00Z,28.8425,-94.2433,-2.0,19.5,11111222 
TABS,ioos:station:wmo:42050:1,2003-04-04T22:30:00Z,28.8425,-94.2433,-2.0,19.5,11111222 
TABS,ioos:station:wmo:42050:1,2003-04-04T23:00:00Z,28.8425,-94.2433,-2.0,19.5,11111222 
TABS,ioos:station:wmo:42050:1,2003-04-04T23:30:00Z,28.8425,-94.2433,-2.0,19.5,11111222 
TABS,ioos:station:wmo:42050:1,2003-04-05T00:00:00Z,28.8425,-94.2433,-2.0,19.8,11111222 
TABS,ioos:station:wmo:42050:1,2003-04-05T00:30:00Z,28.8425,-94.2433,-2.0,19.8,11111222 
TABS,ioos:station:wmo:42050:1,2003-04-05T01:00:00Z,28.8425,-94.2433,-2.0,19.8,11111222 
TABS,ioos:station:wmo:42050:1,2003-04-06T05:00:00Z,28.8425,-94.2433,-2.0,19.73,11111222 
TABS,ioos:station:wmo:42050:1,2003-04-06T05:30:00Z,28.8425,-94.2433,-2.0,19.86,11111222 
TABS,ioos:station:wmo:42050:1,2003-04-06T06:00:00Z,28.8425,-94.2433,-2.0,19.95,11111222 
TABS,ioos:station:wmo:42050:1,2003-04-06T06:30:00Z,28.8425,-94.2433,-2.0,19.95,11111222 
TABS,ioos:station:wmo:42050:1,2003-04-06T07:00:00Z,28.8425,-94.2433,-2.0,19.85,11111222 
TABS,ioos:station:wmo:42050:1,2003-04-06T07:30:00Z,28.8425,-94.2433,-2.0,19.69,11111222 
TABS,ioos:station:wmo:42050:1,2003-04-06T08:00:00Z,28.8425,-94.2433,-2.0,19.52,11111222 
TABS,ioos:station:wmo:42050:1,2003-04-06T08:30:00Z,28.8425,-94.2433,-2.0,19.38,11111222 
TABS,ioos:station:wmo:42050:1,2003-04-06T09:00:00Z,28.8425,-94.2433,-2.0,19.18,11111222 
TABS,ioos:station:wmo:42050:1,2003-04-06T09:30:00Z,28.8425,-94.2433,-2.0,19.13,11111222 
TABS,ioos:station:wmo:42050:1,2003-04-06T10:00:00Z,28.8425,-94.2433,-2.0,18.97,11111222 
TABS,ioos:station:wmo:42050:1,2003-04-06T10:30:00Z,28.8425,-94.2433,-2.0,18.91,11111222 
TABS,ioos:station:wmo:42050:1,2003-04-06T11:00:00Z,28.8425,-94.2433,-2.0,18.99,11111222 
TABS,ioos:station:wmo:42050:1,2003-04-06T11:30:00Z,28.8425,-94.2433,-2.0,19.11,11111222 
TABS,ioos:station:wmo:42050:1,2003-04-06T12:00:00Z,28.8425,-94.2433,-2.0,19.21,11111222 
TABS,ioos:station:wmo:42050:1,2003-04-06T12:30:00Z,28.8425,-94.2433,-2.0,19.3,11111222 
TABS,ioos:station:wmo:42050:1,2003-04-06T13:00:00Z,28.8425,-94.2433,-2.0,19.87,11111222 
TABS,ioos:station:wmo:42050:1,2003-04-06T13:30:00Z,28.8425,-94.2433,-2.0,19.93,11111222 
TABS,ioos:station:wmo:42050:1,2003-04-06T14:00:00Z,28.8425,-94.2433,-2.0,19.95,11111222 
TABS,ioos:station:wmo:42050:1,2003-04-06T14:30:00Z,28.8425,-94.2433,-2.0,20.08,11111222 
TABS,ioos:station:wmo:42050:1,2003-04-06T15:00:00Z,28.8425,-94.2433,-2.0,20.05,11111222 
TABS,ioos:station:wmo:42050:1,2003-04-06T15:30:00Z,28.8425,-94.2433,-2.0,20.0,11111222 
TABS,ioos:station:wmo:42050:1,2003-04-06T16:00:00Z,28.8425,-94.2433,-2.0,19.98,11111222 
TABS,ioos:station:wmo:42050:1,2003-04-06T16:30:00Z,28.8425,-94.2433,-2.0,19.95,11111222 
TABS,ioos:station:wmo:42050:1,2003-04-06T17:00:00Z,28.8425,-94.2433,-2.0,19.94,11111222 
TABS,ioos:station:wmo:42050:1,2003-04-06T17:30:00Z,28.8425,-94.2433,-2.0,19.94,11111222 
TABS,ioos:station:wmo:42050:1,2003-04-06T18:00:00Z,28.8425,-94.2433,-2.0,19.94,11111222 
TABS,ioos:station:wmo:42050:1,2003-04-06T18:30:00Z,28.8425,-94.2433,-2.0,19.92,11111222 
TABS,ioos:station:wmo:42050:1,2003-04-06T19:00:00Z,28.8425,-94.2433,-2.0,19.94,11111222 
TABS,ioos:station:wmo:42050:1,2003-04-06T19:30:00Z,28.8425,-94.2433,-2.0,19.96,11111222 
TABS,ioos:station:wmo:42050:1,2003-04-06T20:00:00Z,28.8425,-94.2433,-2.0,19.96,11111222 
TABS,ioos:station:wmo:42050:1,2003-04-06T20:30:00Z,28.8425,-94.2433,-2.0,19.91,11111222 
TABS,ioos:station:wmo:42050:1,2003-04-06T21:00:00Z,28.8425,-94.2433,-2.0,19.86,11111222 
TABS,ioos:station:wmo:42050:1,2003-04-06T21:30:00Z,28.8425,-94.2433,-2.0,19.83,11111222 
TABS,ioos:station:wmo:42050:1,2003-04-06T22:00:00Z,28.8425,-94.2433,-2.0,19.82,11111222 
TABS,ioos:station:wmo:42050:1,2003-04-06T22:30:00Z,28.8425,-94.2433,-2.0,19.8,11111222 
TABS,ioos:station:wmo:42050:1,2003-04-06T23:00:00Z,28.8425,-94.2433,-2.0,19.78,11111222 
TABS,ioos:station:wmo:42050:1,2003-04-06T23:30:00Z,28.8425,-94.2433,-2.0,19.77,11111222 
TABS,ioos:station:wmo:42050:1,2003-04-07T00:00:00Z,28.8425,-94.2433,-2.0,19.77,11111222 
TABS,ioos:station:wmo:42050:1,2003-04-07T00:30:00Z,28.8425,-94.2433,-2.0,19.79,11111222 
TABS,ioos:station:wmo:42050:1,2003-04-07T01:00:00Z,28.8425,-94.2433,-2.0,19.81,11111222 
TABS,ioos:station:wmo:42050:1,2003-04-07T01:30:00Z,28.8425,-94.2433,-2.0,19.8,11111222 
TABS,ioos:station:wmo:42050:1,2003-04-07T02:00:00Z,28.8425,-94.2433,-2.0,19.77,11111222 
TABS,ioos:station:wmo:42050:1,2003-04-07T02:30:00Z,28.8425,-94.2433,-2.0,19.7,11111222 
TABS,ioos:station:wmo:42050:1,2003-04-07T03:00:00Z,28.8425,-94.2433,-2.0,19.7,11111222 
TABS,ioos:station:wmo:42050:1,2003-04-07T03:30:00Z,28.8425,-94.2433,-2.0,19.68,11111222 
TABS,ioos:station:wmo:42050:1,2003-04-07T04:00:00Z,28.8425,-94.2433,-2.0,19.61,11111222 
TABS,ioos:station:wmo:42050:1,2003-04-07T04:30:00Z,28.8425,-94.2433,-2.0,19.44,11111222 
TABS,ioos:station:wmo:42050:1,2003-04-07T05:00:00Z,28.8425,-94.2433,-2.0,19.36,11111222 
TABS,ioos:station:wmo:42050:1,2003-04-07T05:30:00Z,28.8425,-94.2433,-2.0,19.37,11111222 
TABS,ioos:station:wmo:42050:1,2003-04-07T06:00:00Z,28.8425,-94.2433,-2.0,19.36,11111222 
TABS,ioos:station:wmo:42050:1,2003-04-07T06:30:00Z,28.8425,-94.2433,-2.0,19.35,11111222 
TABS,ioos:station:wmo:42050:1,2003-04-07T07:00:00Z,28.8425,-94.2433,-2.0,19.34,11111222 
TABS,ioos:station:wmo:42050:1,2003-04-07T07:30:00Z,28.8425,-94.2433,-2.0,19.46,11111222 
TABS,ioos:station:wmo:42050:1,2003-04-07T08:00:00Z,28.8425,-94.2433,-2.0,19.55,11111222 
TABS,ioos:station:wmo:42050:1,2003-04-07T08:30:00Z,28.8425,-94.2433,-2.0,19.71,11111222 
TABS,ioos:station:wmo:42050:1,2003-04-07T09:00:00Z,28.8425,-94.2433,-2.0,19.79,11111222 
TABS,ioos:station:wmo:42050:1,2003-04-07T09:30:00Z,28.8425,-94.2433,-2.0,19.67,11111222 
TABS,ioos:station:wmo:42050:1,2003-04-07T10:00:00Z,28.8425,-94.2433,-2.0,19.86,11111222 
TABS,ioos:station:wmo:42050:1,2003-04-07T10:30:00Z,28.8425,-94.2433,-2.0,19.89,11111222 
TABS,ioos:station:wmo:42050:1,2003-04-07T11:00:00Z,28.8425,-94.2433,-2.0,20.03,11111222 
TABS,ioos:station:wmo:42050:1,2003-04-07T11:30:00Z,28.8425,-94.2433,-2.0,20.06,11111222 
TABS,ioos:station:wmo:42050:1,2003-04-07T12:00:00Z,28.8425,-94.2433,-2.0,20.05,11111222 
TABS,ioos:station:wmo:42050:1,2003-04-07T12:30:00Z,28.8425,-94.2433,-2.0,20.06,11111222 
TABS,ioos:station:wmo:42050:1,2003-04-07T13:00:00Z,28.8425,-94.2433,-2.0,20.08,11111222 
TABS,ioos:station:wmo:42050:1,2003-04-07T13:30:00Z,28.8425,-94.2433,-2.0,20.12,11111222 
TABS,ioos:station:wmo:42050:1,2003-04-07T14:00:00Z,28.8425,-94.2433,-2.0,20.18,11111222 
TABS,ioos:station:wmo:42050:1,2003-04-07T14:30:00Z,28.8425,-94.2433,-2.0,20.19,11111222 
TABS,ioos:station:wmo:42050:1,2003-04-07T15:00:00Z,28.8425,-94.2433,-2.0,20.23,11111222 
TABS,ioos:station:wmo:42050:1,2003-04-07T15:30:00Z,28.8425,-94.2433,-2.0,20.28,11111222 
TABS,ioos:station:wmo:42050:1,2003-04-07T16:00:00Z,28.8425,-94.2433,-2.0,20.35,11111222 
TABS,ioos:station:wmo:42050:1,2003-04-07T16:30:00Z,28.8425,-94.2433,-2.0,20.4,11111222 
TABS,ioos:station:wmo:42050:1,2003-04-07T17:00:00Z,28.8425,-94.2433,-2.0,20.42,11111222 
TABS,ioos:station:wmo:42050:1,2003-04-07T17:30:00Z,28.8425,-94.2433,-2.0,20.41,11111222 
TABS,ioos:station:wmo:42050:1,2003-04-07T18:00:00Z,28.8425,-94.2433,-2.0,20.39,11111222 
TABS,ioos:station:wmo:42050:1,2003-04-07T18:30:00Z,28.8425,-94.2433,-2.0,20.3,11111222 
TABS,ioos:station:wmo:42050:1,2003-04-07T19:00:00Z,28.8425,-94.2433,-2.0,20.37,11111222 
TABS,ioos:station:wmo:42050:1,2003-04-07T19:30:00Z,28.8425,-94.2433,-2.0,20.4,11111222 
TABS,ioos:station:wmo:42050:1,2003-04-07T20:00:00Z,28.8425,-94.2433,-2.0,20.33,11111222 
TABS,ioos:station:wmo:42050:1,2003-04-07T20:30:00Z,28.8425,-94.2433,-2.0,20.24,11111222 
TABS,ioos:station:wmo:42050:1,2003-04-07T21:00:00Z,28.8425,-94.2433,-2.0,20.29,11111222 
TABS,ioos:station:wmo:42050:1,2003-04-07T21:30:00Z,28.8425,-94.2433,-2.0,20.31,11111222 
TABS,ioos:station:wmo:42050:1,2003-04-07T22:00:00Z,28.8425,-94.2433,-2.0,20.24,11111222 
TABS,ioos:station:wmo:42050:1,2003-04-07T22:30:00Z,28.8425,-94.2433,-2.0,20.18,11111222 
TABS,ioos:station:wmo:42050:1,2003-04-07T23:00:00Z,28.8425,-94.2433,-2.0,20.2,11111222 
TABS,ioos:station:wmo:42050:1,2003-04-07T23:30:00Z,28.8425,-94.2433,-2.0,20.29,11111222 
TABS,ioos:station:wmo:42050:1,2003-04-08T00:00:00Z,28.8425,-94.2433,-2.0,20.36,11111222 
TABS,ioos:station:wmo:42050:1,2003-04-08T00:30:00Z,28.8425,-94.2433,-2.0,20.44,11111222 
TABS,ioos:station:wmo:42050:1,2003-04-08T01:00:00Z,28.8425,-94.2433,-2.0,20.49,11111222 
TABS,ioos:station:wmo:42050:1,2003-04-08T01:30:00Z,28.8425,-94.2433,-2.0,20.47,11111222 
TABS,ioos:station:wmo:42050:1,2003-04-08T02:00:00Z,28.8425,-94.2433,-2.0,20.3,11111222 
TABS,ioos:station:wmo:42050:1,2003-04-08T02:30:00Z,28.8425,-94.2433,-2.0,20.24,11111222 
TABS,ioos:station:wmo:42050:1,2003-04-08T03:00:00Z,28.8425,-94.2433,-2.0,20.14,11111222 
TABS,ioos:station:wmo:42050:1,2003-04-08T03:30:00Z,28.8425,-94.2433,-2.0,20.01,11111222 
TABS,ioos:station:wmo:42050:1,2003-04-08T04:00:00Z,28.8425,-94.2433,-2.0,19.92,11111222 
TABS,ioos:station:wmo:42050:1,2003-04-08T04:30:00Z,28.8425,-94.2433,-2.0,19.8,11111222 
TABS,ioos:station:wmo:42050:1,2003-04-08T05:00:00Z,28.8425,-94.2433,-2.0,19.64,11111222 
TABS,ioos:station:wmo:42050:1,2003-04-08T05:30:00Z,28.8425,-94.2433,-2.0,19.55,11111222 
TABS,ioos:station:wmo:42050:1,2003-04-08T06:00:00Z,28.8425,-94.2433,-2.0,19.43,11111222 
TABS,ioos:station:wmo:42050:1,2003-04-08T06:30:00Z,28.8425,-94.2433,-2.0,19.35,11111222 
TABS,ioos:station:wmo:42050:1,2003-04-08T07:00:00Z,28.8425,-94.2433,-2.0,19.43,11111222 
TABS,ioos:station:wmo:42050:1,2003-04-08T07:30:00Z,28.8425,-94.2433,-2.0,19.51,11111222 
TABS,ioos:station:wmo:42050:1,2003-04-08T08:00:00Z,28.8425,-94.2433,-2.0,19.44,11111222 
TABS,ioos:station:wmo:42050:1,2003-04-08T08:30:00Z,28.8425,-94.2433,-2.0,19.49,11111222 
TABS,ioos:station:wmo:42050:1,2003-04-08T09:00:00Z,28.8425,-94.2433,-2.0,19.63,11111222 
TABS,ioos:station:wmo:42050:1,2003-04-08T09:30:00Z,28.8425,-94.2433,-2.0,19.71,11111222 
TABS,ioos:station:wmo:42050:1,2003-04-08T10:00:00Z,28.8425,-94.2433,-2.0,19.72,11111222 
TABS,ioos:station:wmo:42050:1,2003-04-08T10:30:00Z,28.8425,-94.2433,-2.0,19.64,11111222 
TABS,ioos:station:wmo:42050:1,2003-04-08T11:00:00Z,28.8425,-94.2433,-2.0,19.69,11111222 
TABS,ioos:station:wmo:42050:1,2003-04-08T11:30:00Z,28.8425,-94.2433,-2.0,19.57,11111222 
TABS,ioos:station:wmo:42050:1,2003-04-08T12:00:00Z,28.8425,-94.2433,-2.0,19.54,11111222 
TABS,ioos:station:wmo:42050:1,2003-04-08T12:30:00Z,28.8425,-94.2433,-2.0,19.53,11111222 
TABS,ioos:station:wmo:42050:1,2003-04-08T13:00:00Z,28.8425,-94.2433,-2.0,19.55,11111222 
TABS,ioos:station:wmo:42050:1,2003-04-08T13:30:00Z,28.8425,-94.2433,-2.0,19.56,11111222 
TABS,ioos:station:wmo:42050:1,2003-04-08T14:00:00Z,28.8425,-94.2433,-2.0,19.56,11111222 
TABS,ioos:station:wmo:42050:1,2003-04-08T14:30:00Z,28.8425,-94.2433,-2.0,19.52,11111222 
TABS,ioos:station:wmo:42050:1,2003-04-08T15:00:00Z,28.8425,-94.2433,-2.0,19.5,11111222 
TABS,ioos:station:wmo:42050:1,2003-04-08T15:30:00Z,28.8425,-94.2433,-2.0,19.48,11111222 
TABS,ioos:station:wmo:42050:1,2003-04-08T16:00:00Z,28.8425,-94.2433,-2.0,19.5,11111222 
TABS,ioos:station:wmo:42050:1,2003-04-08T16:30:00Z,28.8425,-94.2433,-2.0,19.51,11111222 
TABS,ioos:station:wmo:42050:1,2003-04-08T17:00:00Z,28.8425,-94.2433,-2.0,19.51,11111222 
TABS,ioos:station:wmo:42050:1,2003-04-08T17:30:00Z,28.8425,-94.2433,-2.0,19.52,11111222 
TABS,ioos:station:wmo:42050:1,2003-04-08T18:00:00Z,28.8425,-94.2433,-2.0,19.5,11111222 
TABS,ioos:station:wmo:42050:1,2003-04-08T18:30:00Z,28.8425,-94.2433,-2.0,19.49,11111222 
TABS,ioos:station:wmo:42050:1,2003-04-08T19:00:00Z,28.8425,-94.2433,-2.0,19.48,11111222 
TABS,ioos:station:wmo:42050:1,2003-04-08T19:30:00Z,28.8425,-94.2433,-2.0,19.47,11111222 
TABS,ioos:station:wmo:42050:1,2003-04-08T20:00:00Z,28.8425,-94.2433,-2.0,19.47,11111222 
TABS,ioos:station:wmo:42050:1,2003-04-08T20:30:00Z,28.8425,-94.2433,-2.0,19.47,11111222 
TABS,ioos:station:wmo:42050:1,2003-04-08T21:00:00Z,28.8425,-94.2433,-2.0,19.47,11111222 
TABS,ioos:station:wmo:42050:1,2003-04-08T21:30:00Z,28.8425,-94.2433,-2.0,19.47,11111222 
TABS,ioos:station:wmo:42050:1,2003-04-08T22:00:00Z,28.8425,-94.2433,-2.0,19.45,11111222 
TABS,ioos:station:wmo:42050:1,2003-04-08T22:30:00Z,28.8425,-94.2433,-2.0,19.44,11111222 
TABS,ioos:station:wmo:42050:1,2003-04-08T23:00:00Z,28.8425,-94.2433,-2.0,19.41,11111222 
TABS,ioos:station:wmo:42050:1,2003-04-08T23:30:00Z,28.8425,-94.2433,-2.0,19.55,11111222 
TABS,ioos:station:wmo:42050:1,2003-04-09T00:00:00Z,28.8425,-94.2433,-2.0,19.6,11111222 
TABS,ioos:station:wmo:42050:1,2003-04-09T00:30:00Z,28.8425,-94.2433,-2.0,19.6,11111222 
TABS,ioos:station:wmo:42050:1,2003-04-09T01:00:00Z,28.8425,-94.2433,-2.0,19.56,11111222 
TABS,ioos:station:wmo:42050:1,2003-04-09T01:30:00Z,28.8425,-94.2433,-2.0,19.54,11111222 
TABS,ioos:station:wmo:42050:1,2003-04-09T02:00:00Z,28.8425,-94.2433,-2.0,19.52,11111222 
TABS,ioos:station:wmo:42050:1,2003-04-09T02:30:00Z,28.8425,-94.2433,-2.0,19.51,11111222 
TABS,ioos:station:wmo:42050:1,2003-04-09T03:00:00Z,28.8425,-94.2433,-2.0,19.49,11111222 
TABS,ioos:station:wmo:42050:1,2003-04-09T03:30:00Z,28.8425,-94.2433,-2.0,19.46,11111222 
TABS,ioos:station:wmo:42050:1,2003-04-09T04:00:00Z,28.8425,-94.2433,-2.0,19.44,11111222 
TABS,ioos:station:wmo:42050:1,2003-04-09T04:30:00Z,28.8425,-94.2433,-2.0,19.42,11111222 
TABS,ioos:station:wmo:42050:1,2003-04-09T05:00:00Z,28.8425,-94.2433,-2.0,19.39,11111222 
TABS,ioos:station:wmo:42050:1,2003-04-09T05:30:00Z,28.8425,-94.2433,-2.0,19.37,11111222 
TABS,ioos:station:wmo:42050:1,2003-04-09T06:00:00Z,28.8425,-94.2433,-2.0,19.37,11111222 
TABS,ioos:station:wmo:42050:1,2003-04-09T06:30:00Z,28.8425,-94.2433,-2.0,19.35,11111222 
TABS,ioos:station:wmo:42050:1,2003-04-09T07:00:00Z,28.8425,-94.2433,-2.0,19.33,11111222 
TABS,ioos:station:wmo:42050:1,2003-04-09T07:30:00Z,28.8425,-94.2433,-2.0,19.29,11111222 
TABS,ioos:station:wmo:42050:1,2003-04-09T08:00:00Z,28.8425,-94.2433,-2.0,19.3,11111222 
TABS,ioos:station:wmo:42050:1,2003-04-09T08:30:00Z,28.8425,-94.2433,-2.0,19.28,11111222 
TABS,ioos:station:wmo:42050:1,2003-04-09T09:00:00Z,28.8425,-94.2433,-2.0,19.27,11111222 
TABS,ioos:station:wmo:42050:1,2003-04-09T09:30:00Z,28.8425,-94.2433,-2.0,19.25,11111222 